Wiscasset, ME

1:11 PM EDT on September 24, 2017 (GMT -0400)
Wiscasset

Weather History for KIWI - November, 2012

Change the Weather History Date:

Tuesday, November 13, 2012

  Actual Average Record
Temperature  
Mean Temperature 50 °F -  
Max Temperature 61 °F 43 °F 64 °F (2010)
Min Temperature 35 °F 27 °F 19 °F (1996)
Degree Days  
Heating Degree Days 15    
Moisture  
Dew Point 48 °F    
Average Humidity 85    
Maximum Humidity 94    
Minimum Humidity 60    
Precipitation  
Precipitation 0.25 in - - ()
Sea Level Pressure  
Sea Level Pressure 30.22 in    
Wind  
Wind Speed 5 mph (South)    
Max Wind Speed 12 mph    
Max Gust Speed 22 mph    
Visibility 9 miles    
Events Rain    
Averages and records for this station are not official NWS values.
T = Trace of Precipitation, MM = Missing Value Source: NWS Daily Summary

Daily Weather History Graph

Daily Weather History Graph

Search for Another Location

Airport or City:

Trip Planner

Search our weather history database for the weather conditions in past years. The results will help you decide how hot, cold, wet, or windy it might be!

Date:

Astronomy

Nov. 13, 2012 Rise Set
Actual Time 6:31 AM EST 4:14 PM EST
Civil Twilight 6:00 AM EST 4:45 PM EST
Nautical Twilight 5:25 AM EST 5:20 PM EST
Astronomical Twilight 4:51 AM EST 5:54 PM EST
Moon 6:06 AM EST (11/13) 4:03 PM EST (11/13)
Length of Visible Light 10h 44m
Length of Day
9h 42m
Waning Crescent, 0% of the Moon is Illuminated
Nov 13
Waning Crescent
Nov 13
New
Nov 20
First Quarter
Nov 28
Full
Dec 6
Last Quarter

Hourly Weather History & Observations

Time (EST) Temp. Windchill Dew Point Humidity Pressure Visibility Wind Dir Wind Speed Gust Speed Precip Events Conditions
12:14 AM 57.2 °F - 53.6 °F 88% 30.26 in 10.0 mi South 6.9 mph - N/A   Overcast
12:25 AM 57.2 °F - 53.6 °F 88% 30.25 in 10.0 mi South 8.1 mph - N/A   Mostly Cloudy
12:53 AM 57.9 °F - 54.0 °F 87% 30.24 in 10.0 mi South 8.1 mph - N/A   Mostly Cloudy
1:53 AM 57.9 °F - 54.0 °F 87% 30.22 in 10.0 mi South 6.9 mph - N/A   Overcast
2:04 AM 57.2 °F - 53.6 °F 88% 30.21 in 10.0 mi South 6.9 mph - N/A   Overcast
2:27 AM 57.2 °F - 53.6 °F 88% 30.20 in 10.0 mi South 8.1 mph - 0.01 in   Overcast
2:53 AM 57.0 °F - 55.0 °F 93% 30.19 in 10.0 mi SSE 8.1 mph - 0.04 in   Overcast
3:53 AM 57.9 °F - 55.9 °F 93% 30.16 in 10.0 mi Variable 4.6 mph - N/A   Overcast
4:53 AM 60.1 °F - 57.0 °F 90% 30.14 in 10.0 mi South 8.1 mph 19.6 mph N/A   Overcast
5:53 AM 60.1 °F - 55.9 °F 86% 30.13 in 10.0 mi South 11.5 mph 18.4 mph N/A   Overcast
6:31 AM 60.8 °F - 55.4 °F 82% 30.13 in 10.0 mi SSW 10.4 mph 19.6 mph N/A   Overcast
6:53 AM 60.1 °F - 55.9 °F 86% 30.13 in 10.0 mi SSW 11.5 mph 21.9 mph N/A   Overcast
7:53 AM 61.0 °F - 57.0 °F 87% 30.12 in 10.0 mi SSW 11.5 mph 19.6 mph N/A   Overcast
8:37 AM 59.0 °F - 55.4 °F 88% 30.13 in 10.0 mi SW 8.1 mph - 0.02 in   Overcast
8:53 AM 59.0 °F - 55.0 °F 87% 30.14 in 10.0 mi SW 5.8 mph - 0.02 in   Overcast
9:35 AM 57.2 °F - 55.4 °F 94% 30.15 in 3.0 mi WSW 5.8 mph - 0.02 in Rain Light Rain
9:53 AM 55.0 °F - 52.0 °F 89% 30.15 in 10.0 mi Variable 3.5 mph - 0.02 in Rain Light Rain
9:59 AM 55.4 °F - 51.8 °F 88% 30.15 in 10.0 mi Variable 3.5 mph - N/A   Overcast
10:53 AM 54.0 °F - 51.1 °F 90% 30.18 in 10.0 mi Calm Calm - N/A   Overcast
11:05 AM 53.6 °F - 51.8 °F 94% 30.19 in 10.0 mi Calm Calm - N/A   Overcast
11:40 AM 53.6 °F - 51.8 °F 94% 30.18 in 5.0 mi Calm Calm - 0.01 in Rain Light Rain
11:48 AM 53.6 °F - 51.8 °F 94% 30.19 in 8.0 mi Calm Calm - 0.01 in Rain Light Rain
11:53 AM 54.0 °F - 51.1 °F 90% 30.18 in 6.0 mi Calm Calm - 0.02 in Rain Light Rain
12:53 PM 53.1 °F - 50.0 °F 89% 30.17 in 5.0 mi Calm Calm - 0.02 in Rain Light Rain
1:05 PM 53.6 °F - 50.0 °F 88% 30.16 in 5.0 mi ENE 4.6 mph - 0.01 in Rain Light Rain
1:13 PM 53.6 °F - 50.0 °F 88% 30.17 in 5.0 mi Variable 3.5 mph - 0.01 in Rain Light Rain
1:45 PM 51.8 °F - 50.0 °F 94% 30.17 in 8.0 mi Calm Calm - 0.03 in Rain Light Rain
1:53 PM 52.0 °F - 50.0 °F 93% 30.18 in 5.0 mi Calm Calm - 0.05 in Rain Rain
2:00 PM 51.8 °F - 50.0 °F 94% 30.19 in 5.0 mi Calm Calm - 0.00 in Rain Light Rain
2:42 PM 46.4 °F - 42.8 °F 87% 30.23 in 5.0 mi Calm Calm - 0.05 in Rain Light Rain
2:53 PM 45.0 °F 42.6 °F 42.1 °F 90% 30.24 in 7.0 mi Variable 4.6 mph - 0.05 in Rain Light Rain
3:53 PM 44.1 °F 42.5 °F 39.9 °F 85% 30.26 in 10.0 mi Variable 3.5 mph - 0.03 in   Overcast
4:28 PM 42.8 °F 40.1 °F 37.4 °F 81% 30.27 in 10.0 mi Variable 4.6 mph - N/A   Overcast
4:53 PM 43.0 °F - 37.9 °F 82% 30.28 in 10.0 mi Calm Calm - N/A   Overcast
5:53 PM 42.1 °F - 35.1 °F 76% 30.32 in 10.0 mi Calm Calm - N/A   Overcast
6:53 PM 42.1 °F - 32.0 °F 67% 30.35 in 10.0 mi Calm Calm - N/A   Overcast
7:53 PM 41.0 °F 39.0 °F 28.9 °F 62% 30.38 in 10.0 mi Variable 3.5 mph - N/A   Overcast
8:53 PM 41.0 °F 39.0 °F 28.9 °F 62% 30.41 in 10.0 mi Variable 3.5 mph - N/A   Overcast
9:53 PM 39.9 °F - 28.0 °F 63% 30.41 in 10.0 mi Calm Calm - N/A   Overcast
10:53 PM 39.9 °F 37.8 °F 27.0 °F 60% 30.43 in 10.0 mi Variable 3.5 mph - N/A   Overcast
11:53 PM 35.1 °F - 28.0 °F 76% 30.45 in 10.0 mi Calm Calm - N/A   Clear